Tracking 19562 objects as of 25-Mar-2019
HD Live streaming from Space Station
objects crossing your sky now

FENGYUN 1C DEB

Track FENGYUN 1C DEB now!
10-day predictions


NORAD ID: 30345
Int'l Code: 1999-025ABG
Perigee: 816.0 km
Apogee: 846.8 km
Inclination: 98.9 °
Period: 101.4 minutes
Semi major axis: 7202 km
RCS: 0.035 m2 (small)
Launch date: May 10, 1999
Source: People's Republic of China (PRC)
Launch site: Taiyaun Space Center, China (TSC)

Note: This is SATELLITE DEBRIS
aabbcc
Your satellite tracking list
Your tracking list is empty




NASA's NSSDC Master Catalog

Two Line Element Set (TLE):
1 30345U 99025ABG 19083.83363033  .00000814  00000-0  40043-3 0  9997
2 30345  98.9229  55.5792 0021347 129.9120 230.3937 14.20325452627932
Source of the keplerian elements: AFSPC